#timestamp,LO_Frequency,Hit,StdDev 
1590220815.7,286046997.3,N
1590220835.6,286047000.2,N
1590220855.4,286046996.3,N
1590220875.2,286046996.1,N
1590220895.1,286046997.7,N
1590220896.0,286046997.7,N
1590220915.8,286046998.6,N
1590220935.7,286046996.9,N
1590220955.5,286047026.8,Y
1590220975.3,286047000.4,P
1590220995.2,286046995.4,P
1590221015.0,286046997.9,N
1590221015.9,286046997.9,N
1590221035.7,286046997.4,N
1590221055.6,286047000.4,N
1590221075.4,286046999.7,N
1590221095.3,286047000.6,N
1590221115.1,286046999.9,N
1590221116.0,286046999.9,N
1590221135.8,286046998.6,N
1590221155.7,286046998.3,N
1590221175.5,286046999.5,N
1590221195.4,286046996.9,N
1590221215.2,286046999.2,N
1590221235.0,286046999.1,N
1590221235.9,286046999.1,N
1590221255.8,286046996.5,N
1590221275.6,286046998.0,N
1590221295.4,286046998.0,N
1590221315.3,286046999.4,N
1590221335.1,286047011.9,Y
1590221355.9,286046996.7,P
1590221375.7,286046995.0,P
1590221395.5,286046994.2,P
1590221415.4,286046994.5,Y
1590221435.2,286046995.1,P
1590221455.1,286046995.0,P
1590221456.0,286046995.0,P
1590221475.8,286046995.0,Y
1590221495.6,286047002.2,P
1590221515.5,286047001.6,N
1590221535.3,286047002.8,N
1590221555.2,286047002.5,N
1590221575.9,286046998.1,N
1590221595.7,286047000.5,N
1590221615.6,286047001.1,N
1590221635.4,286046999.2,N
1590221655.3,286046999.4,N
1590221675.1,286046998.1,N
1590221676.0,286046998.1,N
1590221695.8,286046999.1,N
1590221715.7,286046998.6,N
1590221735.5,286046998.2,N
1590221755.3,286046998.7,N
1590221775.2,286046999.1,N
1590221795.0,286046998.6,N
1590221795.9,286046998.6,N
1590221815.8,286046998.3,N
1590221835.6,286046996.7,N
1590221855.4,286046997.8,N
1590221875.3,286046995.0,N
1590221895.1,286046995.1,N
1590221915.9,286046997.9,N
1590221935.7,286046997.7,N
1590221955.5,286046995.5,N
1590221975.4,286046993.7,Y
1590221995.2,286046996.1,P
1590222015.1,286046995.1,P
1590222016.0,286046995.1,P
1590222035.8,286046997.5,N
1590222055.6,286046997.1,N
1590222075.5,286046995.2,Y
1590222095.3,286046999.8,P
1590222115.2,286047018.6,P
1590222135.9,286047000.1,N
1590222155.7,286047000.5,N
1590222175.6,286047000.3,N
1590222195.4,286047003.4,N
1590222215.2,286047000.3,N
1590222235.1,286047004.1,N
1590222236.0,286047004.1,N
1590222255.8,286047002.2,N
1590222275.7,286047004.3,N
1590222295.5,286047013.4,N
1590222315.3,286047018.6,Y
1590222335.2,286047012.0,P
1590222355.0,286047008.4,N
1590222355.9,286047008.4,N
1590222375.8,286047009.0,Y
1590222395.6,286046998.4,P
1590222415.5,286046997.0,N
1590222435.3,286046996.9,N
1590222455.1,286046994.9,N
1590222475.9,286046996.3,N
1590222495.7,286046996.2,N
1590222515.5,286046993.4,N
1590222535.4,286046993.6,N
1590222555.2,286046994.3,N
1590222575.1,286046994.6,N
1590222576.0,286046994.6,N
1590222595.8,286046994.0,N
1590222615.6,286046992.9,N
1590222635.5,286046990.8,N
1590222655.3,286046991.2,N
1590222675.2,286046992.7,N
1590222695.9,286046991.3,N
1590222715.7,286046992.3,N
1590222735.6,286046992.4,N
1590222755.4,286046993.1,N
1590222775.3,286046992.8,N
1590222795.1,286046992.6,N
1590222796.0,286046992.6,N
1590222815.8,286046992.9,N
1590222835.7,286046991.1,N
1590222855.5,286046992.5,N
1590222875.4,286046992.6,N
1590222895.2,286046992.1,N
1590222915.0,286046991.8,N
1590222915.9,286046991.8,N
1590222935.8,286046994.1,Y
1590222955.6,286047001.1,P
1590222975.5,286046998.5,N
1590222995.3,286047001.0,N
1590223015.1,286047002.5,N
1590223035.9,286047002.4,N
1590223055.7,286047001.6,N
1590223075.6,286047001.4,N
1590223095.4,286047002.1,N
1590223115.2,286047004.4,N
1590223135.1,286047003.6,N
1590223136.0,286047003.6,N
1590223155.8,286047001.9,N
1590223175.6,286047000.7,N
1590223195.5,286046998.2,N
1590223215.3,286046999.8,N
1590223235.2,286047002.7,N
1590223255.9,286047003.7,N
1590223275.7,286047004.3,N
1590223295.6,286047003.7,N
1590223315.4,286047004.4,N
1590223335.3,286047001.7,N
1590223355.1,286047001.0,N
1590223356.0,286047001.0,N
1590223375.8,286047004.1,N
1590223395.7,286047003.0,N
1590223415.5,286047002.7,N
1590223435.3,286047006.0,N
1590223455.2,286047003.5,N
1590223475.0,286047005.8,N
1590223475.9,286047005.8,N
1590223495.8,286047004.4,N
1590223515.6,286047000.4,N
1590223535.4,286047005.1,N
1590223555.3,286047006.0,Y
1590223575.1,286046999.0,P
1590223595.9,286047000.7,N
1590223615.7,286046998.7,N
1590223635.5,286046998.4,N
1590223655.4,286046999.5,N
1590223675.2,286046997.3,N
1590223695.0,286046997.5,N
1590223695.9,286046997.5,N
1590223715.8,286046997.1,N
1590223735.6,286046999.2,N
1590223755.5,286046999.2,N
1590223775.3,286046999.0,N
1590223795.1,286046999.1,N
1590223815.9,286046998.7,N
1590223835.7,286046998.6,N
1590223855.6,286046999.1,N
1590223875.4,286047000.8,N
1590223895.2,286047000.7,N
1590223915.1,286046999.8,N
1590223916.0,286046999.8,N
1590223935.8,286047001.2,N
1590223955.6,286047002.1,N
1590223975.5,286047000.2,N
1590223995.3,286047001.0,N
1590224015.2,286047000.3,N
1590224035.9,286047002.1,N
1590224055.7,286047002.1,N
1590224075.6,286047002.8,N
1590224095.4,286047001.9,N
1590224115.3,286047000.5,N
1590224135.1,286047011.9,Y
1590224136.0,286047000.9,P
1590224155.8,286047002.7,P
1590224175.7,286047000.4,N
1590224195.5,286047001.9,N
1590224215.3,286046998.1,N
1590224235.2,286047000.3,N
1590224255.0,286047002.7,N
1590224255.9,286047002.7,N
1590224275.8,286047004.2,N
1590224295.6,286047004.1,N
1590224315.4,286047002.6,N
1590224335.3,286047000.4,N
1590224355.1,286047002.2,N
1590224375.9,286047000.5,N
1590224395.7,286047001.8,N
